Year,Month,Day,Hour,Minute,Value (Times are PST for windspeed in km/hr)
2013,10,26,00,00,0.90
2013,10,26,00,01,1.20
2013,10,26,00,02,0.80
2013,10,26,00,03,1.50
2013,10,26,00,04,1.50
2013,10,26,00,05,1.00
2013,10,26,00,06,1.20
2013,10,26,00,07,1.90
2013,10,26,00,08,1.10
2013,10,26,00,09,0.20
2013,10,26,00,10,0.20
2013,10,26,00,11,1.00
2013,10,26,00,12,0.50
2013,10,26,00,13,0.00
2013,10,26,00,14,0.00
2013,10,26,00,15,0.00
2013,10,26,00,16,0.00
2013,10,26,00,17,0.00
2013,10,26,00,18,1.00
2013,10,26,00,19,2.20
2013,10,26,00,20,2.00
2013,10,26,00,21,2.50
2013,10,26,00,22,1.40
2013,10,26,00,23,1.10
2013,10,26,00,24,1.80
2013,10,26,00,25,1.30
2013,10,26,00,26,1.00
2013,10,26,00,27,0.20
2013,10,26,00,28,1.10
2013,10,26,00,29,0.70
2013,10,26,00,30,0.50
2013,10,26,00,31,1.40
2013,10,26,00,32,1.10
2013,10,26,00,33,1.80
2013,10,26,00,34,1.80
2013,10,26,00,35,1.20
2013,10,26,00,36,0.10
2013,10,26,00,37,0.00
2013,10,26,00,38,0.00
2013,10,26,00,39,0.00
2013,10,26,00,40,1.60
2013,10,26,00,41,2.20
2013,10,26,00,42,2.50
2013,10,26,00,43,3.10
2013,10,26,00,44,3.00
2013,10,26,00,45,3.80
2013,10,26,00,46,2.60
2013,10,26,00,47,2.40
2013,10,26,00,48,2.00
2013,10,26,00,49,1.20
2013,10,26,00,50,1.60
2013,10,26,00,51,1.00
2013,10,26,00,52,1.10
2013,10,26,00,53,1.50
2013,10,26,00,54,0.60
2013,10,26,00,55,1.60
2013,10,26,00,56,1.90
2013,10,26,00,57,2.60
2013,10,26,00,58,3.00
2013,10,26,00,59,2.40
2013,10,26,01,00,3.30
2013,10,26,01,01,4.40
2013,10,26,01,02,3.00
2013,10,26,01,03,3.10
2013,10,26,01,04,3.70
2013,10,26,01,05,4.30
2013,10,26,01,06,3.70
2013,10,26,01,07,5.10
2013,10,26,01,08,3.70
2013,10,26,01,09,3.40
2013,10,26,01,10,3.70
2013,10,26,01,11,2.70
2013,10,26,01,12,1.70
2013,10,26,01,13,2.90
2013,10,26,01,14,3.50
2013,10,26,01,15,4.70
2013,10,26,01,16,1.90
2013,10,26,01,17,1.50
2013,10,26,01,18,0.40
2013,10,26,01,19,0.00
2013,10,26,01,20,0.10
2013,10,26,01,21,0.40
2013,10,26,01,22,1.70
2013,10,26,01,23,0.70
2013,10,26,01,24,1.00
2013,10,26,01,25,0.60
2013,10,26,01,26,1.50
2013,10,26,01,27,1.10
2013,10,26,01,28,1.40
2013,10,26,01,29,1.70
2013,10,26,01,30,2.50
2013,10,26,01,31,2.60
2013,10,26,01,32,2.50
2013,10,26,01,33,2.80
2013,10,26,01,34,2.80
2013,10,26,01,35,2.50
2013,10,26,01,36,2.30
2013,10,26,01,37,2.50
2013,10,26,01,38,3.60
2013,10,26,01,39,4.00
2013,10,26,01,40,2.80
2013,10,26,01,41,2.60
2013,10,26,01,42,2.70
2013,10,26,01,43,3.60
2013,10,26,01,44,3.50
2013,10,26,01,45,3.40
2013,10,26,01,46,4.30
2013,10,26,01,47,4.60
2013,10,26,01,48,2.70
2013,10,26,01,49,2.50
2013,10,26,01,50,4.10
2013,10,26,01,51,5.10
2013,10,26,01,52,3.90
2013,10,26,01,53,3.70
2013,10,26,01,54,3.30
2013,10,26,01,55,4.70
2013,10,26,01,56,4.60
2013,10,26,01,57,2.60
2013,10,26,01,58,2.00
2013,10,26,01,59,0.10
2013,10,26,02,00,0.60
2013,10,26,02,01,0.50
2013,10,26,02,02,2.30
2013,10,26,02,03,3.40
2013,10,26,02,04,3.50
2013,10,26,02,05,3.80
2013,10,26,02,06,4.30
2013,10,26,02,07,3.40
2013,10,26,02,08,4.40
2013,10,26,02,09,5.10
2013,10,26,02,10,5.40
2013,10,26,02,11,3.20
2013,10,26,02,12,3.10
2013,10,26,02,13,4.10
2013,10,26,02,14,5.10
2013,10,26,02,15,5.90
2013,10,26,02,16,4.80
2013,10,26,02,17,4.40
2013,10,26,02,18,5.40
2013,10,26,02,19,4.20
2013,10,26,02,20,3.90
2013,10,26,02,21,5.10
2013,10,26,02,22,4.20
2013,10,26,02,23,4.90
2013,10,26,02,24,5.80
2013,10,26,02,25,4.90
2013,10,26,02,26,7.60
2013,10,26,02,27,5.70
2013,10,26,02,28,4.30
2013,10,26,02,29,5.90
2013,10,26,02,30,4.90
2013,10,26,02,31,5.40
2013,10,26,02,32,5.30
2013,10,26,02,33,4.00
2013,10,26,02,34,6.50
2013,10,26,02,35,5.50
2013,10,26,02,36,4.10
2013,10,26,02,37,4.10
2013,10,26,02,38,4.60
2013,10,26,02,39,4.40
2013,10,26,02,40,2.70
2013,10,26,02,41,3.90
2013,10,26,02,42,3.20
2013,10,26,02,43,3.80
2013,10,26,02,44,2.90
2013,10,26,02,45,4.70
2013,10,26,02,46,3.90
2013,10,26,02,47,3.90
2013,10,26,02,48,3.40
2013,10,26,02,49,3.00
2013,10,26,02,50,2.70
2013,10,26,02,51,2.60
2013,10,26,02,52,0.30
2013,10,26,02,53,1.10
2013,10,26,02,54,1.10
2013,10,26,02,55,2.30
2013,10,26,02,56,2.90
2013,10,26,02,57,3.00
2013,10,26,02,58,2.70
2013,10,26,02,59,2.90
2013,10,26,03,00,3.10
2013,10,26,03,01,2.30
2013,10,26,03,02,2.00
2013,10,26,03,03,3.50
2013,10,26,03,04,3.50
2013,10,26,03,05,3.80
2013,10,26,03,06,4.00
2013,10,26,03,07,3.60
2013,10,26,03,08,4.30
2013,10,26,03,09,3.30
2013,10,26,03,10,3.10
2013,10,26,03,11,4.20
2013,10,26,03,12,4.30
2013,10,26,03,13,5.00
2013,10,26,03,14,5.10
2013,10,26,03,15,5.70
2013,10,26,03,16,3.50
2013,10,26,03,17,2.60
2013,10,26,03,18,3.00
2013,10,26,03,19,3.30
2013,10,26,03,20,5.00
2013,10,26,03,21,3.30
2013,10,26,03,22,1.10
2013,10,26,03,23,1.20
2013,10,26,03,24,1.60
2013,10,26,03,25,2.20
2013,10,26,03,26,2.80
2013,10,26,03,27,2.30
2013,10,26,03,28,2.10
2013,10,26,03,29,1.80
2013,10,26,03,30,2.20
2013,10,26,03,31,1.50
2013,10,26,03,32,2.50
2013,10,26,03,33,1.50
2013,10,26,03,34,1.50
2013,10,26,03,35,1.50
2013,10,26,03,36,0.20
2013,10,26,03,37,1.50
2013,10,26,03,38,1.30
2013,10,26,03,39,4.60
2013,10,26,03,40,1.60
2013,10,26,03,41,2.40
2013,10,26,03,42,3.10
2013,10,26,03,43,2.40
2013,10,26,03,44,1.40
2013,10,26,03,45,2.00
2013,10,26,03,46,2.30
2013,10,26,03,47,1.90
2013,10,26,03,48,4.90
2013,10,26,03,49,4.20
2013,10,26,03,50,4.00
2013,10,26,03,51,4.50
2013,10,26,03,52,4.20
2013,10,26,03,53,3.40
2013,10,26,03,54,5.70
2013,10,26,03,55,4.20
2013,10,26,03,56,2.60
2013,10,26,03,57,2.00
2013,10,26,03,58,1.80
2013,10,26,03,59,3.10
2013,10,26,04,00,5.10
2013,10,26,04,01,3.70
2013,10,26,04,02,2.10
2013,10,26,04,03,2.80
2013,10,26,04,04,2.50
2013,10,26,04,05,3.40
2013,10,26,04,06,4.70
2013,10,26,04,07,2.60
2013,10,26,04,08,1.30
2013,10,26,04,09,2.30
2013,10,26,04,10,2.10
2013,10,26,04,11,2.00
2013,10,26,04,12,0.70
2013,10,26,04,13,0.30
2013,10,26,04,14,1.50
2013,10,26,04,15,1.60
2013,10,26,04,16,2.20
2013,10,26,04,17,1.50
2013,10,26,04,18,1.50
2013,10,26,04,19,4.10
2013,10,26,04,20,4.80
2013,10,26,04,21,2.70
2013,10,26,04,22,1.70
2013,10,26,04,23,3.50
2013,10,26,04,24,4.50
2013,10,26,04,25,3.20
2013,10,26,04,26,1.40
2013,10,26,04,27,1.60
2013,10,26,04,28,3.70
2013,10,26,04,29,2.00
2013,10,26,04,30,2.70
2013,10,26,04,31,2.30
2013,10,26,04,32,2.70
2013,10,26,04,33,2.70
2013,10,26,04,34,2.80
2013,10,26,04,35,3.50
2013,10,26,04,36,3.10
2013,10,26,04,37,4.30
2013,10,26,04,38,5.10
2013,10,26,04,39,4.60
2013,10,26,04,40,4.40
2013,10,26,04,41,2.10
2013,10,26,04,42,3.90
2013,10,26,04,43,4.00
2013,10,26,04,44,4.00
2013,10,26,04,45,6.40
2013,10,26,04,46,4.90
2013,10,26,04,47,4.40
2013,10,26,04,48,4.90
2013,10,26,04,49,4.70
2013,10,26,04,50,3.60
2013,10,26,04,51,5.10
2013,10,26,04,52,3.10
2013,10,26,04,53,7.20
2013,10,26,04,54,6.30
2013,10,26,04,55,4.50
2013,10,26,04,56,6.20
2013,10,26,04,57,5.40
2013,10,26,04,58,6.20
2013,10,26,04,59,4.60
2013,10,26,05,00,3.70
2013,10,26,05,01,3.00
2013,10,26,05,02,3.50
2013,10,26,05,03,3.10
2013,10,26,05,04,1.40
2013,10,26,05,05,2.00
2013,10,26,05,06,3.80
2013,10,26,05,07,2.90
2013,10,26,05,08,3.30
2013,10,26,05,09,2.70
2013,10,26,05,10,1.60
2013,10,26,05,11,0.60
2013,10,26,05,12,1.80
2013,10,26,05,13,0.90
2013,10,26,05,14,1.10
2013,10,26,05,15,1.30
2013,10,26,05,16,2.00
2013,10,26,05,17,0.90
2013,10,26,05,18,2.00
2013,10,26,05,19,2.30
2013,10,26,05,20,1.80
2013,10,26,05,21,1.10
2013,10,26,05,22,0.20
2013,10,26,05,23,0.00
2013,10,26,05,24,0.10
2013,10,26,05,25,1.00
2013,10,26,05,26,1.50
2013,10,26,05,27,0.20
2013,10,26,05,28,0.60
2013,10,26,05,29,0.40
2013,10,26,05,30,0.00
2013,10,26,05,31,0.40
2013,10,26,05,32,0.20
2013,10,26,05,33,0.90
2013,10,26,05,34,0.70
2013,10,26,05,35,1.10
2013,10,26,05,36,0.00
2013,10,26,05,37,0.20
2013,10,26,05,38,1.00
2013,10,26,05,39,0.90
2013,10,26,05,40,1.50
2013,10,26,05,41,2.30
2013,10,26,05,42,0.50
2013,10,26,05,43,0.10
2013,10,26,05,44,0.00
2013,10,26,05,45,0.00
2013,10,26,05,46,0.00
2013,10,26,05,47,0.00
2013,10,26,05,48,0.00
2013,10,26,05,49,0.00
2013,10,26,05,50,0.00
2013,10,26,05,51,0.00
2013,10,26,05,52,0.00
2013,10,26,05,53,0.00
2013,10,26,05,54,0.00
2013,10,26,05,55,0.00
2013,10,26,05,56,0.00
2013,10,26,05,57,0.00
2013,10,26,05,58,0.10
2013,10,26,05,59,0.10
2013,10,26,06,00,0.00
2013,10,26,06,01,0.00
2013,10,26,06,02,0.00
2013,10,26,06,03,0.00
2013,10,26,06,04,0.00
2013,10,26,06,05,0.00
2013,10,26,06,06,0.00
2013,10,26,06,07,0.00
2013,10,26,06,08,1.00
2013,10,26,06,09,0.30
2013,10,26,06,10,0.20
2013,10,26,06,11,2.30
2013,10,26,06,12,2.10
2013,10,26,06,13,2.00
2013,10,26,06,14,2.70
2013,10,26,06,15,3.70
2013,10,26,06,16,3.50
2013,10,26,06,17,3.50
2013,10,26,06,18,3.30
2013,10,26,06,19,2.30
2013,10,26,06,20,3.10
2013,10,26,06,21,4.50
2013,10,26,06,22,4.10
2013,10,26,06,23,3.20
2013,10,26,06,24,3.90
2013,10,26,06,25,3.60
2013,10,26,06,26,3.50
2013,10,26,06,27,4.10
2013,10,26,06,28,3.80
2013,10,26,06,29,4.00
2013,10,26,06,30,3.10
2013,10,26,06,31,2.30
2013,10,26,06,32,3.70
2013,10,26,06,33,2.30
2013,10,26,06,34,2.30
2013,10,26,06,35,2.10
2013,10,26,06,36,3.10
2013,10,26,06,37,3.10
2013,10,26,06,38,3.40
2013,10,26,06,39,4.10
2013,10,26,06,40,4.70
2013,10,26,06,41,3.90
2013,10,26,06,42,4.20
2013,10,26,06,43,4.00
2013,10,26,06,44,5.80
2013,10,26,06,45,5.80
2013,10,26,06,46,5.10
2013,10,26,06,47,5.80
2013,10,26,06,48,6.90
2013,10,26,06,49,4.50
2013,10,26,06,50,4.10
2013,10,26,06,51,3.00
2013,10,26,06,52,3.90
2013,10,26,06,53,3.00
2013,10,26,06,54,1.30
2013,10,26,06,55,1.90
2013,10,26,06,56,4.00
2013,10,26,06,57,3.70
2013,10,26,06,58,4.40
2013,10,26,06,59,4.00
2013,10,26,07,00,3.80
2013,10,26,07,01,3.10
2013,10,26,07,02,3.30
2013,10,26,07,03,3.80
2013,10,26,07,04,3.90
2013,10,26,07,05,3.10
2013,10,26,07,06,4.90
2013,10,26,07,07,5.10
2013,10,26,07,08,4.30
2013,10,26,07,09,4.60
2013,10,26,07,10,3.60
2013,10,26,07,11,5.10
2013,10,26,07,12,5.80
2013,10,26,07,13,4.00
2013,10,26,07,14,2.70
2013,10,26,07,15,5.80
2013,10,26,07,16,3.90
2013,10,26,07,17,4.70
2013,10,26,07,18,7.10
2013,10,26,07,19,6.40
2013,10,26,07,20,2.80
2013,10,26,07,21,5.40
2013,10,26,07,22,3.50
2013,10,26,07,23,3.60
2013,10,26,07,24,2.80
2013,10,26,07,25,3.90
2013,10,26,07,26,5.90
2013,10,26,07,27,4.30
2013,10,26,07,28,4.20
2013,10,26,07,29,4.60
2013,10,26,07,30,4.30
2013,10,26,07,31,3.10
2013,10,26,07,32,3.90
2013,10,26,07,33,3.50
2013,10,26,07,34,6.60
2013,10,26,07,35,5.40
2013,10,26,07,36,4.40
2013,10,26,07,37,6.30
2013,10,26,07,38,6.90
2013,10,26,07,39,6.70
2013,10,26,07,40,4.70
2013,10,26,07,41,6.40
2013,10,26,07,42,5.50
2013,10,26,07,43,6.30
2013,10,26,07,44,6.90
2013,10,26,07,45,3.30
2013,10,26,07,46,4.00
2013,10,26,07,47,3.10
2013,10,26,07,48,3.40
2013,10,26,07,49,5.70
2013,10,26,07,50,3.80
2013,10,26,07,51,4.20
2013,10,26,07,52,4.60
2013,10,26,07,53,5.90
2013,10,26,07,54,4.30
2013,10,26,07,55,6.10
2013,10,26,07,56,7.30
2013,10,26,07,57,5.80
2013,10,26,07,58,4.20
2013,10,26,07,59,4.10
2013,10,26,08,00,5.60
2013,10,26,08,01,6.90
2013,10,26,08,02,6.40
2013,10,26,08,03,5.00
2013,10,26,08,04,3.90
2013,10,26,08,05,4.20
2013,10,26,08,06,3.40
2013,10,26,08,07,4.80
2013,10,26,08,08,4.40
2013,10,26,08,09,3.60
2013,10,26,08,10,4.10
2013,10,26,08,11,3.70
2013,10,26,08,12,5.40
2013,10,26,08,13,7.40
2013,10,26,08,14,6.00
2013,10,26,08,15,4.90
2013,10,26,08,16,5.30
2013,10,26,08,17,5.10
2013,10,26,08,18,4.50
2013,10,26,08,19,4.80
2013,10,26,08,20,3.70
2013,10,26,08,21,3.70
2013,10,26,08,22,2.50
2013,10,26,08,23,5.40
2013,10,26,08,24,5.30
2013,10,26,08,25,4.40
2013,10,26,08,26,4.70
2013,10,26,08,27,4.00
2013,10,26,08,28,5.10
2013,10,26,08,29,5.80
2013,10,26,08,30,5.60
2013,10,26,08,31,6.60
2013,10,26,08,32,6.10
2013,10,26,08,33,5.10
2013,10,26,08,34,5.10
2013,10,26,08,35,3.30
2013,10,26,08,36,5.10
2013,10,26,08,37,5.30
2013,10,26,08,38,4.00
2013,10,26,08,39,5.00
2013,10,26,08,40,7.60
2013,10,26,08,41,5.60
2013,10,26,08,42,6.00
2013,10,26,08,43,2.40
2013,10,26,08,44,8.40
2013,10,26,08,45,6.40
2013,10,26,08,46,7.20
2013,10,26,08,47,3.30
2013,10,26,08,48,6.30
2013,10,26,08,49,5.80
2013,10,26,08,50,4.70
2013,10,26,08,51,4.10
2013,10,26,08,52,4.00
2013,10,26,08,53,4.30
2013,10,26,08,54,5.40
2013,10,26,08,55,3.00
2013,10,26,08,56,3.40
2013,10,26,08,57,4.10
2013,10,26,08,58,5.60
2013,10,26,08,59,5.10
2013,10,26,09,00,4.00
2013,10,26,09,01,4.20
2013,10,26,09,02,5.10
2013,10,26,09,03,5.50
2013,10,26,09,04,5.40
2013,10,26,09,05,5.70
2013,10,26,09,06,4.60
2013,10,26,09,07,5.50
2013,10,26,09,08,4.30
2013,10,26,09,09,3.80
2013,10,26,09,10,7.20
2013,10,26,09,11,6.00
2013,10,26,09,12,4.10
2013,10,26,09,13,3.60
2013,10,26,09,14,6.00
2013,10,26,09,15,6.80
2013,10,26,09,16,6.40
2013,10,26,09,17,3.50
2013,10,26,09,18,3.80
2013,10,26,09,19,4.10
2013,10,26,09,20,3.90
2013,10,26,09,21,6.00
2013,10,26,09,22,5.70
2013,10,26,09,23,6.30
2013,10,26,09,24,6.50
2013,10,26,09,25,5.10
2013,10,26,09,26,7.80
2013,10,26,09,27,5.40
2013,10,26,09,28,3.10
2013,10,26,09,29,6.50
2013,10,26,09,30,4.30
2013,10,26,09,31,3.80
2013,10,26,09,32,3.50
2013,10,26,09,33,5.60
2013,10,26,09,34,4.20
2013,10,26,09,35,4.30
2013,10,26,09,36,4.70
2013,10,26,09,37,4.40
2013,10,26,09,38,5.30
2013,10,26,09,39,6.00
2013,10,26,09,40,6.30
2013,10,26,09,41,6.70
2013,10,26,09,42,7.00
2013,10,26,09,43,5.00
2013,10,26,09,44,5.10
2013,10,26,09,45,6.40
2013,10,26,09,46,5.60
2013,10,26,09,47,5.60
2013,10,26,09,48,3.90
2013,10,26,09,49,3.90
2013,10,26,09,50,5.10
2013,10,26,09,51,5.80
2013,10,26,09,52,6.80
2013,10,26,09,53,5.10
2013,10,26,09,54,8.40
2013,10,26,09,55,8.50
2013,10,26,09,56,6.80
2013,10,26,09,57,5.60
2013,10,26,09,58,6.40
2013,10,26,09,59,5.40
2013,10,26,10,00,5.60
2013,10,26,10,01,6.90
2013,10,26,10,02,12.30
2013,10,26,10,03,8.80
2013,10,26,10,04,7.60
2013,10,26,10,05,10.10
2013,10,26,10,06,7.40
2013,10,26,10,07,9.80
2013,10,26,10,08,4.40
2013,10,26,10,09,7.20
2013,10,26,10,10,4.20
2013,10,26,10,11,4.30
2013,10,26,10,12,8.20
2013,10,26,10,13,5.20
2013,10,26,10,14,4.50
2013,10,26,10,15,6.00
2013,10,26,10,16,4.80
2013,10,26,10,17,5.60
2013,10,26,10,18,6.00
2013,10,26,10,19,7.00
2013,10,26,10,20,6.60
2013,10,26,10,21,5.00
2013,10,26,10,22,5.30
2013,10,26,10,23,8.50
2013,10,26,10,24,7.10
2013,10,26,10,25,5.50
2013,10,26,10,26,5.60
2013,10,26,10,27,5.80
2013,10,26,10,28,3.10
2013,10,26,10,29,4.30
2013,10,26,10,30,4.70
2013,10,26,10,31,5.30
2013,10,26,10,32,6.20
2013,10,26,10,33,3.60
2013,10,26,10,34,3.10
2013,10,26,10,35,4.10
2013,10,26,10,36,4.10
2013,10,26,10,37,6.70
2013,10,26,10,38,6.60
2013,10,26,10,39,5.10
2013,10,26,10,40,4.90
2013,10,26,10,41,3.30
2013,10,26,10,42,6.40
2013,10,26,10,43,6.30
2013,10,26,10,44,5.90
2013,10,26,10,45,7.30
2013,10,26,10,46,6.50
2013,10,26,10,47,2.60
2013,10,26,10,48,6.90
2013,10,26,10,49,4.20
2013,10,26,10,50,5.00
2013,10,26,10,51,4.20
2013,10,26,10,52,5.30
2013,10,26,10,53,5.90
2013,10,26,10,54,5.60
2013,10,26,10,55,6.90
2013,10,26,10,56,5.40
2013,10,26,10,57,4.50
2013,10,26,10,58,5.60
2013,10,26,10,59,4.20
2013,10,26,11,00,6.40
2013,10,26,11,01,4.80
2013,10,26,11,02,6.80
2013,10,26,11,03,5.10
2013,10,26,11,04,5.30
2013,10,26,11,05,6.40
2013,10,26,11,06,8.70
2013,10,26,11,07,9.00
2013,10,26,11,08,6.10
2013,10,26,11,09,10.70
2013,10,26,11,10,10.80
2013,10,26,11,11,11.80
2013,10,26,11,12,10.40
2013,10,26,11,13,8.30
2013,10,26,11,14,7.80
2013,10,26,11,15,7.80
2013,10,26,11,16,8.00
2013,10,26,11,17,7.00
2013,10,26,11,18,8.80
2013,10,26,11,19,8.90
2013,10,26,11,20,6.70
2013,10,26,11,21,6.60
2013,10,26,11,22,9.70
2013,10,26,11,23,5.40
2013,10,26,11,24,7.30
2013,10,26,11,25,6.10
2013,10,26,11,26,4.70
2013,10,26,11,27,5.30
2013,10,26,11,28,9.70
2013,10,26,11,29,8.40
2013,10,26,11,30,10.10
2013,10,26,11,31,6.00
2013,10,26,11,32,7.20
2013,10,26,11,33,7.00
2013,10,26,11,34,8.90
2013,10,26,11,35,7.70
2013,10,26,11,36,7.90
2013,10,26,11,37,8.50
2013,10,26,11,38,5.80
2013,10,26,11,39,4.70
2013,10,26,11,40,6.30
2013,10,26,11,41,7.40
2013,10,26,11,42,4.80
2013,10,26,11,43,7.60
2013,10,26,11,44,8.90
2013,10,26,11,45,4.70
2013,10,26,11,46,7.20
2013,10,26,11,47,6.80
2013,10,26,11,48,6.80
2013,10,26,11,49,10.40
2013,10,26,11,50,6.00
2013,10,26,11,51,4.30
2013,10,26,11,52,5.80
2013,10,26,11,53,4.60
2013,10,26,11,54,5.90
2013,10,26,11,55,4.30
2013,10,26,11,56,3.80
2013,10,26,11,57,2.10
2013,10,26,11,58,3.70
2013,10,26,11,59,4.40
2013,10,26,12,00,3.80
2013,10,26,12,01,3.90
2013,10,26,12,02,7.10
2013,10,26,12,03,8.40
2013,10,26,12,04,4.30
2013,10,26,12,05,3.50
2013,10,26,12,06,2.50
2013,10,26,12,07,4.80
2013,10,26,12,08,7.00
2013,10,26,12,09,4.60
2013,10,26,12,10,2.20
2013,10,26,12,11,4.30
2013,10,26,12,12,4.20
2013,10,26,12,13,1.30
2013,10,26,12,14,7.60
2013,10,26,12,15,5.90
2013,10,26,12,16,6.80
2013,10,26,12,17,8.40
2013,10,26,12,18,3.20
2013,10,26,12,19,1.80
2013,10,26,12,20,4.00
2013,10,26,12,21,2.60
2013,10,26,12,22,1.90
2013,10,26,12,23,1.50
2013,10,26,12,24,1.50
2013,10,26,12,25,6.00
2013,10,26,12,26,5.50
2013,10,26,12,27,3.70
2013,10,26,12,28,3.80
2013,10,26,12,29,1.40
2013,10,26,12,30,4.70
2013,10,26,12,31,2.80
2013,10,26,12,32,2.90
2013,10,26,12,33,1.40
2013,10,26,12,34,2.20
2013,10,26,12,35,3.90
2013,10,26,12,36,5.40
2013,10,26,12,37,4.30
2013,10,26,12,38,3.60
2013,10,26,12,39,6.50
2013,10,26,12,40,5.10
2013,10,26,12,41,3.20
2013,10,26,12,42,6.00
2013,10,26,12,43,5.50
2013,10,26,12,44,1.90
2013,10,26,12,45,3.90
2013,10,26,12,46,3.40
2013,10,26,12,47,4.80
2013,10,26,12,48,3.10
2013,10,26,12,49,3.60
2013,10,26,12,50,4.30
2013,10,26,12,51,4.00
2013,10,26,12,52,4.70
2013,10,26,12,53,7.40
2013,10,26,12,54,2.70
2013,10,26,12,55,3.40
2013,10,26,12,56,4.30
2013,10,26,12,57,6.00
2013,10,26,12,58,6.30
2013,10,26,12,59,7.60
2013,10,26,13,00,7.20
2013,10,26,13,01,5.50
2013,10,26,13,02,5.50
2013,10,26,13,03,5.40
2013,10,26,13,04,10.30
2013,10,26,13,05,8.60
2013,10,26,13,06,9.70
2013,10,26,13,07,8.40
2013,10,26,13,08,3.10
2013,10,26,13,09,3.70
2013,10,26,13,10,6.00
2013,10,26,13,11,10.10
2013,10,26,13,12,6.50
2013,10,26,13,13,7.20
2013,10,26,13,14,5.70
2013,10,26,13,15,8.60
2013,10,26,13,16,7.70
2013,10,26,13,17,4.90
2013,10,26,13,18,5.40
2013,10,26,13,19,5.10
2013,10,26,13,20,6.00
2013,10,26,13,21,6.90
2013,10,26,13,22,12.00
2013,10,26,13,23,5.10
2013,10,26,13,24,6.80
2013,10,26,13,25,6.00
2013,10,26,13,26,8.10
2013,10,26,13,27,9.00
2013,10,26,13,28,5.40
2013,10,26,13,29,8.50
2013,10,26,13,30,8.20
2013,10,26,13,31,10.10
2013,10,26,13,32,10.20
2013,10,26,13,33,7.90
2013,10,26,13,34,7.90
2013,10,26,13,35,8.10
2013,10,26,13,36,8.10
2013,10,26,13,37,8.10
2013,10,26,13,38,8.10
2013,10,26,13,39,8.10
2013,10,26,13,40,8.10
2013,10,26,13,41,8.10
2013,10,26,13,42,6.40
2013,10,26,13,43,4.60
2013,10,26,13,44,7.20
2013,10,26,13,45,9.20
2013,10,26,13,46,10.90
2013,10,26,13,47,12.30
2013,10,26,13,48,9.00
2013,10,26,13,49,6.30
2013,10,26,13,50,9.30
2013,10,26,13,51,9.40
2013,10,26,13,52,4.90
2013,10,26,13,53,6.60
2013,10,26,13,54,7.20
2013,10,26,13,55,5.60
2013,10,26,13,56,3.60
2013,10,26,13,57,6.40
2013,10,26,13,58,8.00
2013,10,26,13,59,9.00
2013,10,26,14,00,8.40
2013,10,26,14,01,8.30
2013,10,26,14,02,7.10
2013,10,26,14,03,9.10
2013,10,26,14,04,11.30
2013,10,26,14,05,12.00
2013,10,26,14,06,5.60
2013,10,26,14,07,6.80
2013,10,26,14,08,8.00
2013,10,26,14,09,5.00
2013,10,26,14,10,8.90
2013,10,26,14,11,8.10
2013,10,26,14,12,5.10
2013,10,26,14,13,10.80
2013,10,26,14,14,8.90
2013,10,26,14,15,9.10
2013,10,26,14,16,9.90
2013,10,26,14,17,8.10
2013,10,26,14,18,7.90
2013,10,26,14,19,9.60
2013,10,26,14,20,7.70
2013,10,26,14,21,7.60
2013,10,26,14,22,7.80
2013,10,26,14,23,6.80
2013,10,26,14,24,6.40
2013,10,26,14,25,8.90
2013,10,26,14,26,5.50
2013,10,26,14,27,7.50
2013,10,26,14,28,3.90
2013,10,26,14,29,5.70
2013,10,26,14,30,10.10
2013,10,26,14,31,3.90
2013,10,26,14,32,4.80
2013,10,26,14,33,11.20
2013,10,26,14,34,11.00
2013,10,26,14,35,8.10
2013,10,26,14,36,6.00
2013,10,26,14,37,6.00
2013,10,26,14,38,6.60
2013,10,26,14,39,14.20
2013,10,26,14,40,10.80
2013,10,26,14,41,2.60
2013,10,26,14,42,7.60
2013,10,26,14,43,5.60
2013,10,26,14,44,9.40
2013,10,26,14,45,9.00
2013,10,26,14,46,6.40
2013,10,26,14,47,3.40
2013,10,26,14,48,10.30
2013,10,26,14,49,5.80
2013,10,26,14,50,7.90
2013,10,26,14,51,8.80
2013,10,26,14,52,8.10
2013,10,26,14,53,7.30
2013,10,26,14,54,6.10
2013,10,26,14,55,8.00
2013,10,26,14,56,6.70
2013,10,26,14,57,8.90
2013,10,26,14,58,8.40
2013,10,26,14,59,3.00
2013,10,26,15,00,3.10
2013,10,26,15,01,6.50
2013,10,26,15,02,3.10
2013,10,26,15,03,2.70
2013,10,26,15,04,3.50
2013,10,26,15,05,8.30
2013,10,26,15,06,8.50
2013,10,26,15,07,6.00
2013,10,26,15,08,6.00
2013,10,26,15,09,6.10
2013,10,26,15,10,11.90
2013,10,26,15,11,7.70
2013,10,26,15,12,9.80
2013,10,26,15,13,6.70
2013,10,26,15,14,8.90
2013,10,26,15,15,6.10
2013,10,26,15,16,9.30
2013,10,26,15,17,7.90
2013,10,26,15,18,8.90
2013,10,26,15,19,10.30
2013,10,26,15,20,9.10
2013,10,26,15,21,6.00
2013,10,26,15,22,9.40
2013,10,26,15,23,11.40
2013,10,26,15,24,12.10
2013,10,26,15,25,9.50
2013,10,26,15,26,7.80
2013,10,26,15,27,10.20
2013,10,26,15,28,6.60
2013,10,26,15,29,8.30
2013,10,26,15,30,10.40
2013,10,26,15,31,5.10
2013,10,26,15,32,7.20
2013,10,26,15,33,8.70
2013,10,26,15,34,8.60
2013,10,26,15,35,8.90
2013,10,26,15,36,6.70
2013,10,26,15,37,5.10
2013,10,26,15,38,4.10
2013,10,26,15,39,5.50
2013,10,26,15,40,5.00
2013,10,26,15,41,6.10
2013,10,26,15,42,7.30
2013,10,26,15,43,5.30
2013,10,26,15,44,8.90
2013,10,26,15,45,8.30
2013,10,26,15,46,5.40
2013,10,26,15,47,10.50
2013,10,26,15,48,8.10
2013,10,26,15,49,6.60
2013,10,26,15,50,7.70
2013,10,26,15,51,4.20
2013,10,26,15,52,6.00
2013,10,26,15,53,4.90
2013,10,26,15,54,4.20
2013,10,26,15,55,5.30
2013,10,26,15,56,5.80
2013,10,26,15,57,4.70
2013,10,26,15,58,5.10
2013,10,26,15,59,4.40
2013,10,26,16,00,4.80
2013,10,26,16,01,5.70
2013,10,26,16,02,8.40
2013,10,26,16,03,3.70
2013,10,26,16,04,3.70
2013,10,26,16,05,8.60
2013,10,26,16,06,4.70
2013,10,26,16,07,5.00
2013,10,26,16,08,5.30
2013,10,26,16,09,8.00
2013,10,26,16,10,6.40
2013,10,26,16,11,5.70
2013,10,26,16,12,7.00
2013,10,26,16,13,13.00
2013,10,26,16,14,6.70
2013,10,26,16,15,6.60
2013,10,26,16,16,7.20
2013,10,26,16,17,7.90
2013,10,26,16,18,5.90
2013,10,26,16,19,4.20
2013,10,26,16,20,6.70
2013,10,26,16,21,6.40
2013,10,26,16,22,12.20
2013,10,26,16,23,9.90
2013,10,26,16,24,5.90
2013,10,26,16,25,6.70
2013,10,26,16,26,7.60
2013,10,26,16,27,5.90
2013,10,26,16,28,5.60
2013,10,26,16,29,7.70
2013,10,26,16,30,3.20
2013,10,26,16,31,5.20
2013,10,26,16,32,8.90
2013,10,26,16,33,7.00
2013,10,26,16,34,4.60
2013,10,26,16,35,10.10
2013,10,26,16,36,4.30
2013,10,26,16,37,7.80
2013,10,26,16,38,6.80
2013,10,26,16,39,8.40
2013,10,26,16,40,9.80
2013,10,26,16,41,7.40
2013,10,26,16,42,7.20
2013,10,26,16,43,10.70
2013,10,26,16,44,7.30
2013,10,26,16,45,4.80
2013,10,26,16,46,3.30
2013,10,26,16,47,2.50
2013,10,26,16,48,6.70
2013,10,26,16,49,8.80
2013,10,26,16,50,7.50
2013,10,26,16,51,6.00
2013,10,26,16,52,5.90
2013,10,26,16,53,5.70
2013,10,26,16,54,4.70
2013,10,26,16,55,5.90
2013,10,26,16,56,6.00
2013,10,26,16,57,6.30
2013,10,26,16,58,9.10
2013,10,26,16,59,5.10
2013,10,26,17,00,4.60
2013,10,26,17,01,6.60
2013,10,26,17,02,5.20
2013,10,26,17,03,3.30
2013,10,26,17,04,0.80
2013,10,26,17,05,3.10
2013,10,26,17,06,5.00
2013,10,26,17,07,7.90
2013,10,26,17,08,6.40
2013,10,26,17,09,7.10
2013,10,26,17,10,9.00
2013,10,26,17,11,6.40
2013,10,26,17,12,7.20
2013,10,26,17,13,6.40
2013,10,26,17,14,5.30
2013,10,26,17,15,6.10
2013,10,26,17,16,5.20
2013,10,26,17,17,2.90
2013,10,26,17,18,6.20
2013,10,26,17,19,6.70
2013,10,26,17,20,4.00
2013,10,26,17,21,3.90
2013,10,26,17,22,6.40
2013,10,26,17,23,10.90
2013,10,26,17,24,9.70
2013,10,26,17,25,8.40
2013,10,26,17,26,9.70
2013,10,26,17,27,5.60
2013,10,26,17,28,8.50
2013,10,26,17,29,10.00
2013,10,26,17,30,9.50
2013,10,26,17,31,10.00
2013,10,26,17,32,7.00
2013,10,26,17,33,10.70
2013,10,26,17,34,10.10
2013,10,26,17,35,11.10
2013,10,26,17,36,7.30
2013,10,26,17,37,6.90
2013,10,26,17,38,6.20
2013,10,26,17,39,7.80
2013,10,26,17,40,3.20
2013,10,26,17,41,5.50
2013,10,26,17,42,3.10
2013,10,26,17,43,6.40
2013,10,26,17,44,7.60
2013,10,26,17,45,9.30
2013,10,26,17,46,11.30
2013,10,26,17,47,4.30
2013,10,26,17,48,4.20
2013,10,26,17,49,8.30
2013,10,26,17,50,6.60
2013,10,26,17,51,8.20
2013,10,26,17,52,11.90
2013,10,26,17,53,5.30
2013,10,26,17,54,3.80
2013,10,26,17,55,3.10
2013,10,26,17,56,4.40
2013,10,26,17,57,7.90
2013,10,26,17,58,9.10
2013,10,26,17,59,7.60
2013,10,26,18,00,4.00
2013,10,26,18,01,4.70
2013,10,26,18,02,7.10
2013,10,26,18,03,10.10
2013,10,26,18,04,5.80